Location: Arthez
(43.0833°N, 0.2500°W)
Time: 15:10:12
(UTC+00:00)

NOSS 3-1 (A) - Pass Details

Date: 10 December 2023
Orbit: 665 x 1546 km, 63.4° (Epoch: 18 February)

Event Time Altitude Azimuth Distance (km) Brightness Sun altitude
Exits shadow 06:14:46 - 325° (NW) 2,644 5.3 -11.7°
Reaches altitude 10° 06:15:09 10° 328° (NNW) 2,602 5.3 -11.7°
Maximum altitude 06:17:44 13° 354° (N) 2,530 5.4 -11.2°
Drops below altitude 10° 06:20:31 10° 19° (NNE) 2,860 5.9 -10.8°
Sets 06:25:27 0° 46° (NE) 4,055 7.1 -9.9°
